Temperature
14 14 15 15 15 15 15 16 17 18 18 17 16 16 15 15 15 15 14 14 14 14 14 14 14 14 14 14 14 14 14 14 14 14 14 14 14 14
14 14 14 15 15 15 15 15 15 16 17 17 16 16 15 15 15 15 14 14 15 15 14 14 14 14 14 14 14 14 14 14 14 14 14 14 14 14
14 14 14 14 14 15 15 15 15 15 16 16 16 15 14 15 15 14 14 14 14 14 15 14 14 14 14 14 14 14 14 14 14 14 14 14 14 14
14 14 14 14 14 14 14 14 15 14 15 15 15 15 14 14 14 14 14 15 15 15 15 15 15 15 15 14 14 14 14 14 14 14 14 14 14 14
14 14 14 14 14 14 14 14 14 14 14 14 15 15 15 14 14 14 14 14 15 15 15 15 15 15 15 15 14 14 14 14 14 14 14 14 14 14
14 14 14 14 14 14 14 14 14 14 14 14 15 15 15 14 14 14 15 15 14 15 15 14 14 14 15 15 14 14 14 14 14 14 14 14 14 14
14 14 14 14 14 14 14 14 14 14 14 14 15 15 15 15 14 14 15 15 14 14 14 14 14 14 14 14 14 14 14 14 14 14 14 14 14 14
14 14 14 14 14 14 14 14 14 13 14 14 14 14 14 14 14 14 14 14 14 14 14 14 14 14 14 14 14 14 14 14 14 14 14 14 14 14
14 14 13 13 13 13 13 14 13 13 13 13 13 13 13 13 13 13 13 13 13 13 13 13 13 13 14 14 14 13 13 13 13 13 13 13 13 13
13 13 13 13 13 13 13 12 12 12 13 13 13 13 12 12 12 12 12 12 12 12 12 12 13 13 13 13 13 13 13 13 13 13 13 13 13 13
12 12 12 12 12 12 12 12 12 12 12 12 12 12 12 12 12 11 11 11 12 12 12 12 12 12 13 13 13 12 12 12 12 12 12 12 12 12
11 11 11 11 11 11 11 11 11 11 11 11 11 11 11 11 10 10 10 10 11 11 12 11 11 11 12 12 12 12 12 11 11 11 11 12 12 11
10 10 10 10 10 10 10 10 10 10 10 10 10 10 9 9 9 9 9 9 9 10 10 10 10 10 10 11 11 11 11 11 11 11 11 11 11 11
9 9 9 9 9 9 9 9 9 9 9 9 9 9 9 8 8 8 8 8 8 8 8 8 8 8 9 9 10 10 10 10 10 10 11 11 11 10
8 8 8 8 8 8 8 8 8 7 7 8 8 8 7 7 7 7 7 7 7 7 7 7 7 7 8 8 9 9 9 9 10 10 10 10 10 10
7 7 7 7 7 7 7 7 7 6 6 6 6 6 6 6 6 6 6 6 7 7 7 7 7 7 7 7 7 8 8 8 9 9 9 9 9 10
7 7 7 7 7 7 6 6 6 5 5 5 5 5 5 5 5 5 5 5 5 6 6 6 6 6 6 6 6 7 7 8 8 8 8 8 9 9
6 6 6 6 6 6 5 5 5 5 4 4 4 4 4 4 4 4 4 4 5 5 5 5 5 5 6 6 6 7 7 7 7 7 7 7 8 8
5 5 5 5 4 4 4 4 4 4 3 3 3 3 3 3 3 3 3 4 4 4 4 4 4 5 5 5 6 6 6 6 6 7 7 7 7 8
4 4 4 4 3 3 3 3 3 3 3 2 2 2 2 2 2 2 3 3 3 3 3 4 4 4 4 4 4 5 5 5 5 6 6 6 6 7
3 3 3 2 2 2 2 2 2 2 2 2 2 1 1 1 1 1 2 2 2 2 2 3 3 3 3 3 4 4 5 5 5 5 5 5 6 6
2 2 2 1 1 1 1 1 1 1 1 1 1 1 1 1 1 1 1 1 1 1 2 2 3 3 3 3 3 4 4 5 5 5 5 5 5 6
1 1 1 1 1 1 0 0 0 0 0 0 -0 -0 0 0 0 0 0 0 1 1 1 2 2 2 3 3 3 3 4 4 5 5 6 6 6 6
Wind_Speed
6 6 6 4 4 4 4 5 6 6 5 5 6 5 6 6 5 8 8 10 11 11 11 10 11 11 11 11 11 12 12 12 12 12 12 13 14 14
5 5 5 5 4 5 5 5 6 7 6 3 4 4 3 6 7 8 9 9 13 14 14 14 14 14 14 14 14 14 14 14 14 14 14 14 15 15
7 7 8 7 6 6 6 6 6 6 7 6 5 4 5 8 6 8 10 11 12 18 17 16 16 16 17 17 17 17 17 17 17 17 17 17 17 17
9 9 9 8 8 8 7 7 7 6 8 8 6 6 7 8 8 8 10 11 12 13 17 17 18 18 19 19 20 20 20 20 20 19 19 19 19 19
10 10 10 9 9 9 8 8 8 8 8 8 9 6 7 7 8 9 11 9 12 12 16 20 21 21 21 21 21 22 22 22 22 22 22 22 21 21
9 9 10 10 10 10 9 9 9 8 8 9 9 8 8 8 7 9 9 8 9 10 10 11 15 20 22 23 23 23 23 23 23 23 23 23 23 23
9 9 9 7 6 7 8 8 8 9 9 9 9 9 9 7 8 8 8 8 9 9 9 10 10 12 14 21 25 25 24 24 23 24 24 24 25 25
8 8 7 6 6 7 8 8 8 9 10 9 9 9 9 8 7 8 9 9 10 7 7 10 10 11 11 14 13 17 21 22 23 24 24 25 25 26
4 4 5 4 4 6 7 10 9 9 9 10 11 10 9 7 7 10 10 11 11 9 9 12 12 12 12 14 12 15 18 20 22 24 24 25 25 26
2 2 3 3 3 4 6 7 7 7 8 8 8 9 8 7 7 9 11 12 12 12 11 13 13 13 13 13 13 16 19 22 23 24 25 25 25 26
1 1 1 1 4 5 5 6 6 6 4 4 6 8 9 9 8 8 10 11 12 12 9 11 13 13 13 13 14 16 21 23 24 25 25 25 26 24
2 4 7 6 6 5 4 5 5 5 6 5 5 7 8 9 10 9 9 10 12 12 9 8 11 12 13 12 11 11 12 17 23 26 26 26 25 19
3 3 5 8 7 6 4 3 4 6 6 6 6 6 6 6 6 7 7 8 10 11 9 9 10 12 13 13 13 12 12 13 14 16 21 25 25 20
3 3 4 6 4 4 3 3 5 7 6 6 6 6 6 6 6 7 9 10 11 13 13 12 11 12 14 15 14 13 13 13 13 14 14 15 19 24
3 3 2 2 4 3 2 3 6 5 5 6 6 6 6 7 7 8 9 10 12 14 14 14 13 13 13 15 15 15 14 14 14 14 14 14 14 13
4 1 7 7 5 3 4 4 4 4 5 6 7 7 7 7 8 8 9 9 10 11 11 12 13 14 14 15 15 15 15 14 14 14 14 15 15 15
8 5 4 4 4 4 4 4 5 5 5 6 7 8 8 8 8 8 8 9 10 11 11 10 11 11 13 14 15 15 15 15 14 14 13 16 16 16
8 5 5 5 6 6 6 6 6 6 7 8 8 8 8 9 9 9 9 10 10 11 11 11 11 12 13 13 13 15 15 14 14 14 15 16 17 16
5 5 6 6 6 7 7 7 7 7 7 8 8 8 9 9 9 10 10 10 11 11 11 11 12 12 14 15 13 11 14 15 15 15 15 16 17 17
6 6 7 7 7 7 7 8 8 8 8 8 8 9 9 9 10 10 10 11 12 12 13 12 11 11 12 15 15 17 16 16 15 16 16 16 17 17
7 7 7 7 7 8 8 8 9 9 9 9 9 9 9 10 10 10 11 13 12 12 13 13 12 13 14 13 14 15 16 15 15 15 17 17 18 17
7 7 7 8 8 8 8 8 9 9 10 9 9 9 10 10 11 12 12 12 11 12 14 13 14 13 12 13 15 17 18 17 15 17 20 19 15 15
7 7 7 8 8 8 8 9 10 9 9 10 10 10 10 10 10 11 12 12 12 13 13 13 13 12 13 13 14 15 18 18 15 15 14 14 19 24
Wind_Direction
220 212 235 230 239 249 254 261 268 265 241 199 223 206 220 227 184 225 232 203 217 232 237 241 246 249 252 253 255 257 259 259 259 258 255 253 253 252
237 237 239 238 230 236 242 247 256 269 275 244 217 214 222 244 199 232 244 211 225 233 238 242 247 250 253 254 255 256 257 257 256 256 255 253 253 253
223 223 228 248 242 235 233 238 241 248 257 259 238 220 225 255 237 241 247 244 240 219 227 238 245 248 251 253 254 255 256 256 256 255 255 254 253 252
225 226 229 226 229 245 244 242 243 248 254 262 259 240 223 236 244 250 253 247 254 215 213 231 241 246 248 250 251 253 254 254 254 254 254 254 253 252
230 229 231 233 231 235 239 245 242 236 240 254 256 254 248 239 240 245 250 253 260 244 217 226 235 242 246 248 249 250 251 251 252 252 252 252 252 252
233 233 234 234 235 238 238 243 248 250 242 248 255 251 245 241 243 253 254 240 251 263 259 248 236 234 240 244 246 247 248 249 251 251 252 252 252 252
231 233 235 237 252 253 255 247 243 246 248 248 252 256 253 249 252 258 264 269 261 260 262 261 251 246 240 236 237 241 243 246 249 250 251 252 252 252
231 231 231 225 234 236 262 274 274 259 259 263 262 264 269 269 270 273 275 274 274 270 268 270 270 268 264 263 247 229 233 242 248 251 252 252 252 252
237 240 245 238 236 248 236 234 247 249 255 264 271 276 281 282 284 276 274 276 278 284 282 275 274 271 269 267 243 231 236 243 249 253 254 254 254 254
260 258 259 283 302 297 271 260 255 249 243 244 260 271 280 292 282 276 280 275 271 265 261 268 274 274 275 273 254 232 237 243 248 253 255 256 256 256
4 24 356 9 23 341 286 274 272 271 250 244 270 276 285 281 277 276 274 273 275 276 267 266 276 281 281 277 269 240 234 240 246 250 252 254 255 256
63 69 59 44 30 357 313 297 290 298 303 290 264 257 262 255 236 247 266 271 277 280 283 279 281 286 284 280 279 279 262 249 243 245 246 248 250 256
36 34 51 49 34 16 348 340 331 315 299 290 286 282 277 274 268 262 269 275 279 278 289 297 287 284 280 282 283 282 280 279 272 259 247 242 241 240
29 18 42 37 15 354 352 360 317 294 286 289 289 289 289 289 290 290 287 282 277 277 284 286 280 280 281 282 283 284 282 282 281 279 278 264 242 234
33 65 13 310 286 254 172 266 281 286 299 296 296 297 298 299 296 287 278 272 269 268 269 267 268 273 274 277 282 283 284 283 281 279 278 276 272 264
2 214 207 225 247 272 272 266 290 314 311 301 301 301 300 298 294 296 296 295 291 288 279 274 271 274 276 278 279 281 281 281 281 279 279 279 277 272
328 311 323 331 326 332 329 330 324 320 312 312 309 307 306 304 302 302 300 298 294 295 296 294 285 276 272 277 279 278 281 281 279 280 279 278 275 273
312 334 345 341 336 337 333 332 332 334 333 325 318 314 311 308 306 305 302 299 297 296 297 299 298 293 287 277 261 274 279 282 285 284 281 279 278 277
320 355 350 343 339 337 335 332 331 332 326 318 315 315 313 310 307 304 302 300 298 298 298 298 295 292 291 290 288 277 290 292 291 286 282 278 278 279
2 356 349 344 342 340 335 331 328 325 322 319 316 314 312 310 307 305 304 303 303 302 299 296 292 293 293 294 295 293 284 281 285 286 286 285 282 280
360 356 352 348 343 339 334 330 326 323 325 321 318 318 314 310 306 305 303 302 298 294 294 294 297 300 294 288 284 284 287 282 277 279 285 286 285 284
357 351 348 342 338 335 332 330 328 326 324 320 319 316 313 310 306 304 302 300 297 295 295 295 298 297 292 287 286 289 292 293 286 269 260 260 271 277
353 345 339 338 339 336 335 332 327 325 324 323 319 315 312 308 305 301 298 296 295 295 296 296 297 297 294 289 289 291 294 298 298 296 288 269 252 252
Height
1559 1559 1560 1561 1562 1563 1563 1564 1565 1564 1563 1564 1565 1565 1565 1566 1565 1565 1566 1565 1564 1564 1564 1563 1563 1562 1562 1561 1561 1561 1561 1561 1561 1562 1562 1562 1562 1563
1556 1557 1557 1560 1560 1560 1561 1561 1562 1563 1562 1562 1562 1563 1562 1563 1562 1562 1562 1561 1561 1560 1560 1560 1559 1559 1558 1558 1557 1557 1557 1557 1557 1557 1557 1557 1557 1557
1554 1554 1555 1556 1557 1558 1558 1559 1559 1560 1560 1560 1560 1559 1558 1558 1559 1558 1558 1558 1558 1556 1556 1555 1555 1554 1554 1553 1553 1553 1552 1552 1552 1552 1552 1552 1552 1552
1551 1551 1552 1553 1553 1554 1555 1556 1556 1556 1557 1557 1557 1557 1555 1554 1554 1554 1554 1554 1554 1553 1551 1550 1550 1549 1549 1548 1548 1547 1547 1547 1547 1546 1546 1546 1546 1546
1548 1548 1549 1550 1550 1551 1551 1552 1553 1553 1552 1553 1553 1553 1552 1552 1551 1550 1550 1548 1549 1549 1546 1545 1544 1544 1543 1542 1542 1541 1541 1541 1541 1541 1540 1540 1540 1540
1543 1544 1545 1545 1546 1546 1547 1547 1548 1549 1549 1548 1548 1548 1548 1547 1546 1546 1546 1545 1544 1544 1543 1541 1539 1538 1537 1536 1536 1535 1535 1534 1534 1534 1534 1533 1533 1533
1539 1539 1540 1541 1541 1542 1543 1544 1544 1544 1544 1544 1544 1543 1543 1543 1542 1541 1541 1540 1539 1538 1537 1536 1535 1533 1531 1530 1529 1528 1528 1528 1527 1527 1526 1526 1526 1525
1534 1535 1535 1535 1536 1537 1537 1538 1538 1539 1539 1539 1538 1538 1537 1537 1537 1536 1535 1534 1534 1534 1532 1530 1530 1528 1526 1525 1523 1521 1520 1520 1519 1519 1518 1518 1517 1517
1529 1529 1530 1531 1531 1531 1532 1532 1532 1532 1532 1532 1532 1532 1531 1531 1530 1530 1529 1528 1527 1526 1525 1523 1522 1520 1519 1518 1516 1514 1513 1512 1511 1510 1509 1509 1508 1508
1524 1525 1525 1525 1525 1526 1526 1526 1526 1526 1526 1526 1525 1525 1525 1524 1523 1523 1522 1520 1518 1518 1517 1515 1514 1513 1512 1510 1508 1505 1504 1503 1501 1500 1500 1499 1498 1498
1521 1520 1520 1520 1520 1520 1521 1520 1520 1520 1520 1519 1519 1518 1517 1517 1516 1516 1515 1514 1513 1512 1511 1509 1507 1505 1504 1502 1500 1497 1495 1494 1492 1491 1490 1489 1488 1488
1517 1516 1516 1515 1515 1515 1515 1515 1515 1514 1514 1513 1512 1511 1510 1510 1509 1508 1508 1507 1505 1505 1504 1502 1500 1498 1495 1494 1493 1491 1488 1486 1484 1482 1480 1479 1479 1477
1516 1515 1513 1512 1512 1512 1511 1511 1510 1509 1508 1508 1507 1506 1505 1504 1503 1502 1501 1500 1498 1497 1497 1495 1493 1491 1489 1486 1484 1483 1481 1479 1477 1475 1472 1471 1469 1468
1514 1513 1511 1510 1509 1509 1508 1507 1506 1505 1505 1504 1503 1502 1501 1499 1498 1496 1495 1493 1491 1490 1488 1487 1485 1484 1482 1478 1476 1474 1473 1471 1469 1467 1465 1463 1461 1459
1512 1511 1509 1508 1507 1506 1505 1503 1502 1502 1501 1500 1499 1497 1496 1494 1492 1490 1488 1486 1484 1482 1481 1480 1478 1477 1475 1472 1469 1467 1465 1462 1461 1458 1456 1454 1453 1451
1511 1509 1507 1506 1505 1504 1503 1502 1500 1499 1497 1496 1495 1493 1491 1489 1487 1485 1483 1481 1479 1477 1476 1474 1472 1470 1467 1465 1462 1459 1457 1454 1452 1450 1448 1445 1443 1441
1509 1509 1508 1507 1505 1503 1502 1500 1498 1496 1495 1493 1491 1489 1486 1484 1482 1481 1478 1476 1474 1471 1469 1467 1466 1463 1460 1458 1454 1452 1449 1447 1444 1442 1439 1435 1433 1431
1508 1508 1506 1505 1503 1501 1499 1497 1496 1494 1491 1489 1487 1485 1482 1480 1478 1475 1473 1471 1468 1466 1463 1461 1459 1456 1453 1450 1448 1444 1442 1439 1437 1434 1431 1427 1423 1422
1507 1506 1505 1503 1501 1499 1497 1495 1493 1491 1488 1486 1483 1481 1478 1475 1473 1471 1468 1466 1463 1461 1458 1456 1453 1450 1447 1442 1440 1439 1435 1431 1428 1425 1422 1419 1414 1412
1507 1505 1503 1501 1499 1497 1495 1492 1490 1488 1485 1483 1480 1477 1474 1471 1468 1466 1464 1461 1458 1455 1452 1450 1448 1445 1441 1437 1432 1429 1427 1424 1421 1417 1413 1410 1406 1402
1505 1503 1501 1499 1497 1495 1492 1490 1487 1485 1482 1479 1476 1473 1470 1467 1464 1461 1458 1455 1453 1449 1446 1444 1441 1438 1434 1430 1425 1420 1419 1417 1413 1409 1405 1401 1396 1393
1504 1502 1500 1497 1495 1492 1490 1487 1484 1482 1478 1475 1472 1469 1466 1463 1459 1456 1453 1450 1447 1444 1440 1437 1434 1431 1428 1424 1418 1414 1410 1407 1404 1401 1397 1393 1389 1384
1503 1501 1498 1496 1493 1490 1488 1484 1481 1478 1475 1472 1469 1465 1462 1458 1454 1451 1447 1444 1441 1438 1434 1431 1427 1424 1421 1417 1413 1408 1404 1400 1396 1392 1388 1385 1381 1377